DW0269 Weather Reports


Display with metric or nautical units.
time (UTC)temp
F
wind
direction
speed
MPH
gust
MPH
rain 1hr
in
rain 24hr
in
rain mn
in
humidity
%
barometer
mb
20260503203042 71 43 9.0 14.0 0.00 0.00 0.00 82 950.3
20260503202541 71 36 8.0 14.0 0.00 0.00 0.00 83 950.5
20260503202040 71 38 7.0 14.0 0.00 0.00 0.00 84 950.5
20260503201539 71 46 8.0 14.0 0.00 0.00 0.00 84 950.6
20260503200522 70 47 6.0 14.0 0.00 0.00 0.00 86 950.5
20260503200021 70 41 8.0 14.0 0.00 0.00 0.00 85 950.3
20260503195520 70 37 8.0 14.0 0.00 0.00 0.00 86 950.6
20260503194503 69 42 8.0 15.0 0.00 0.00 0.00 87 950.6
20260503194002 69 43 8.0 16.0 0.00 0.00 0.00 88 950.3
20260503193501 68 38 8.0 16.0 0.00 0.00 0.00 88 950.6
20260503193000 68 44 8.0 14.0 0.00 0.00 0.00 89 950.2
20260503192500 68 42 8.0 14.0 0.00 0.00 0.00 90 950.4
20260503191958 68 43 6.0 14.0 0.00 0.00 0.00 92 950.3
20260503191456 67 49 6.0 15.0 0.00 0.00 0.00 92 950.2
20260503190955 67 50 8.0 15.0 0.00 0.00 0.00 91 950.4
20260503190454 67 39 8.0 15.0 0.00 0.00 0.00 91 950.4
20260503185953 67 51 5.0 15.0 0.00 0.00 0.00 92 950.4
20260503185452 66 43 8.0 15.0 0.00 0.00 0.00 93 950.6
20260503184951 66 46 5.0 15.0 0.00 0.00 0.00 94 950.4
20260503184450 66 63 7.0 15.0 0.00 0.00 0.00 94 950.2
20260503183949 65 53 5.0 16.0 0.00 0.00 0.00 95 950.3
20260503183448 65 56 7.0 16.0 0.00 0.00 0.00 95 950.0
20260503182946 65 58 7.0 15.0 0.00 0.00 0.00 95 950.4
20260503181939 65 56 5.0 13.0 0.00 0.00 0.00 96 950.2
20260503180406 64 55 5.0 14.0 0.00 0.00 0.00 96 950.0
20260503175905 64 65 7.0 14.0 0.00 0.00 0.00 95 950.1
20260503175405 64 65 7.0 15.0 0.00 0.00 0.00 95 949.8
20260503174903 64 60 6.0 15.0 0.00 0.00 0.00 96 949.9
20260503174402 64 56 6.0 15.0 0.00 0.00 0.00 96 950.0
20260503173901 64 55 5.0 15.0 0.00 0.00 0.00 96 949.8
20260503173400 64 52 4.0 12.0 0.00 0.00 0.00 96 950.0
20260503172900 64 58 5.0 12.0 0.00 0.00 0.00 96 949.9
20260503172358 64 67 6.0 12.0 0.00 0.00 0.00 96 949.4
20260503171857 64 52 4.0 13.0 0.00 0.00 0.00 96 949.8
20260503171356 64 55 4.0 13.0 0.00 0.00 0.00 97 949.8
20260503170855 63 61 4.0 13.0 0.00 0.00 0.00 97 949.9
20260503170354 63 42 3.0 13.0 0.00 0.00 0.00 97 949.5
20260503150731 62 54 4.0 11.0 0.00 0.00 0.00 96 949.0
20260503150230 62 70 5.0 11.0 0.00 0.00 0.00 96 949.1
20260503140203 63 45 2.0 11.0 0.00 0.00 0.00 97 949.2
20260503131153 63 49 3.0 11.0 0.00 0.00 0.00 97 949.0
20260503130653 63 45 3.0 11.0 0.00 0.00 0.00 97 949.1
20260503130152 63 37 4.0 11.0 0.00 0.00 0.00 97 948.9
20260503120125 63 38 5.0 11.0 0.00 0.00 0.00 98 949.4
20260503110609 63 51 2.0 12.0 0.00 0.00 0.00 97 950.1
20260503080303 64 50 2.0 12.0 0.00 0.00 0.00 97 950.0
20260503072225 64 49 5.0 12.0 0.00 0.00 0.00 97 949.2
20260503071724 64 46 5.0 13.0 0.00 0.00 0.00 97 949.4
20260503071223 64 49 4.0 13.0 0.00 0.00 0.00 97 949.4
20260503070722 64 54 5.0 12.0 0.00 0.00 0.00 97 949.3
20260503070221 64 44 4.0 12.0 0.00 0.00 0.00 97 949.1
20260503060124 64 44 5.0 12.0 0.00 0.00 0.00 97 948.6
20260503055122 64 40 6.0 12.0 0.00 0.00 0.00 96 948.6
20260503054621 64 38 6.0 12.0 0.00 0.00 0.00 96 948.5
20260503054120 64 33 6.0 12.0 0.00 0.00 0.00 96 948.2
20260503053619 64 37 7.0 12.0 0.00 0.00 0.00 96 948.4
20260503053118 64 37 8.0 12.0 0.00 0.00 0.00 96 948.2
20260503052618 64 34 5.0 12.0 0.00 0.00 0.00 96 948.2
20260503051600 64 33 6.0 12.0 0.00 0.00 0.00 96 948.3
20260503051059 64 40 6.0 12.0 0.00 0.00 0.00 96 948.1
20260503050558 64 33 5.0 12.0 0.00 0.00 0.00 96 948.3
20260503050057 64 33 5.0 12.0 0.00 0.00 0.00 95 948.1
20260503045556 64 33 6.0 12.0 0.00 0.00 0.00 95 948.0
20260503045055 64 33 6.0 12.0 0.00 0.00 0.00 95 947.6
20260503044554 64 36 5.0 12.0 0.00 0.00 0.00 95 947.8
20260503044053 64 32 6.0 12.0 0.00 0.00 0.00 94 947.8
20260503043552 64 33 6.0 12.0 0.00 0.00 0.00 94 947.6
20260503043051 65 36 5.0 12.0 0.00 0.00 0.00 94 947.8
20260503042034 65 37 6.0 12.0 0.00 0.00 0.00 94 947.7
20260503041533 65 36 6.0 12.0 0.00 0.00 0.00 94 947.4
20260503041032 65 25 5.0 12.0 0.00 0.00 0.00 94 947.6
20260503040531 65 29 6.0 12.0 0.00 0.00 0.00 94 947.6
20260503035514 65 30 5.0 12.0 0.00 0.00 0.00 94 947.7
20260503035013 65 36 6.0 12.0 0.00 0.00 0.00 94 947.5
20260503034512 65 31 6.0 12.0 0.00 0.00 0.00 93 947.5
20260503034011 66 35 6.0 13.0 0.00 0.00 0.00 93 947.3
20260503033510 67 37 3.0 13.0 0.00 0.00 0.00 93 947.5
20260503033009 67 33 5.0 13.0 0.00 0.00 0.00 93 947.6
20260503032508 67 46 4.0 13.0 0.00 0.00 0.00 94 947.3
20260503032007 67 35 4.0 13.0 0.00 0.00 0.00 93 947.4
20260503031506 67 29 5.0 13.0 0.00 0.00 0.00 92 947.3
20260503031005 68 30 4.0 13.0 0.00 0.00 0.00 92 947.2
20260503030504 68 35 5.0 13.0 0.00 0.00 0.00 91 947.2
20260503025447 68 23 4.0 13.0 0.00 0.00 0.00 90 947.2
20260503024430 69 37 7.0 13.0 0.00 0.00 0.00 88 947.0
20260503023929 71 43 6.0 13.0 0.00 0.00 0.00 86 946.8
20260503023428 72 52 4.0 13.0 0.00 0.00 0.00 85 947.0
20260503022927 71 54 5.0 13.0 0.00 0.00 0.00 85 946.9
20260503022426 71 52 3.0 13.0 0.00 0.00 0.00 86 947.0
20260503021925 71 38 6.0 13.0 0.00 0.00 0.00 84 946.8
20260503021424 71 33 6.0 13.0 0.00 0.00 0.00 84 946.7
20260503020407 70 36 5.0 13.0 0.00 0.00 0.00 85 946.8
20260503015350 71 40 6.0 13.0 0.00 0.00 0.00 84 947.2
20260503014849 71 41 5.0 13.0 0.00 0.00 0.00 86 947.1
20260503014348 71 48 6.0 12.0 0.00 0.00 0.00 85 947.0
20260503013847 71 37 7.0 12.0 0.00 0.00 0.00 85 947.2
20260503013346 72 42 6.0 12.0 0.00 0.00 0.00 83 947.3
20260503012845 72 65 5.0 12.0 0.00 0.00 0.00 85 947.2
20260503010756 72 48 5.0 13.0 0.00 0.00 0.00 83 947.2
20260503010256 72 40 5.0 13.0 0.00 0.00 0.00 83 947.3
20260503005754 72 44 5.0 13.0 0.00 0.00 0.00 83 947.1
20260503005254 72 41 6.0 13.0 0.00 0.00 0.00 84 947.3
20260503004752 72 38 6.0 13.0 0.00 0.00 0.00 84 947.6
20260503004251 71 37 7.0 13.0 0.00 0.00 0.00 82 947.4
20260503003750 72 47 5.0 13.0 0.00 0.00 0.00 84 947.5
20260503003249 72 44 5.0 13.0 0.00 0.00 0.00 85 947.5
20260503002748 72 40 6.0 13.0 0.00 0.00 0.00 83 947.7
20260503002248 72 37 8.0 13.0 0.00 0.00 0.00 83 947.5
20260503001747 72 29 6.0 13.0 0.00 0.00 0.00 82 947.7
20260503001246 72 27 8.0 13.0 0.00 0.00 0.00 81 947.6
20260503000745 72 47 5.0 13.0 0.00 0.00 0.00 84 947.7
20260503000243 72 41 7.0 13.0 0.00 0.00 0.00 83 947.9
20260502235742 71 47 6.0 13.0 0.00 0.00 0.00 86 947.7
20260502235242 71 42 7.0 13.0 0.00 0.00 0.00 87 947.7
20260502234740 71 34 6.0 13.0 0.00 0.00 0.00 86 947.9
20260502234240 71 30 5.0 13.0 0.00 0.00 0.00 87 948.1
20260502233739 71 35 7.0 14.0 0.00 0.00 0.00 86 948.1
20260502233238 71 37 8.0 14.0 0.00 0.00 0.00 84 948.3
20260502232221 73 43 5.0 13.0 0.00 0.00 0.00 85 948.1
20260502231720 72 44 6.0 13.0 0.00 0.00 0.00 87 948.1
20260502231218 72 40 6.0 13.0 0.00 0.00 0.00 85 948.5
20260502230202 72 38 7.0 13.0 0.00 0.00 0.00 85 948.4
20260502225701 72 46 5.0 13.0 0.00 0.00 0.00 87 948.1
20260502225200 72 46 6.0 13.0 0.00 0.00 0.00 85 948.7
20260502224658 72 43 5.0 14.0 0.00 0.00 0.00 87 948.6
20260502224158 71 47 7.0 14.0 0.00 0.00 0.00 87 948.4
20260502223657 71 40 6.0 14.0 0.00 0.00 0.00 88 948.9
20260502223155 71 50 7.0 14.0 0.00 0.00 0.00 87 948.9
20260502222138 71 51 7.0 14.0 0.00 0.00 0.00 88 948.4
20260502221637 70 40 6.0 14.0 0.00 0.00 0.00 89 948.7
20260502221137 71 44 6.0 14.0 0.00 0.00 0.00 89 948.9
20260502220636 70 41 8.0 13.0 0.00 0.00 0.00 88 948.9
20260502214547 70 42 8.0 13.0 0.00 0.00 0.00 88 949.2
20260502214046 70 51 7.0 12.0 0.00 0.00 0.00 89 949.0
20260502213545 70 47 7.0 12.0 0.00 0.00 0.00 89 949.2
20260502213044 70 40 6.0 12.0 0.00 0.00 0.00 90 949.4
20260502212543 71 52 4.0 12.0 0.00 0.00 0.00 92 949.7
20260502212042 70 50 4.0 12.0 0.00 0.00 0.00 92 949.5
20260502211541 71 49 4.0 11.0 0.00 0.00 0.00 91 949.5
20260502211040 71 39 7.0 11.0 0.00 0.00 0.00 89 949.8
20260502210539 71 66 3.0 11.0 0.00 0.00 0.00 92 949.8
20260502210038 70 84 5.0 15.0 0.00 0.00 0.00 90 949.6
20260502205537 70 87 7.0 15.0 0.00 0.00 0.00 88 949.6
20260502204520 69 59 6.0 13.0 0.00 0.00 0.00 88 949.7
20260502204019 69 62 5.0 13.0 0.00 0.00 0.00 88 949.5
20260502203518 69 56 5.0 13.0 0.00 0.00 0.00 89 949.8